Location: Ocean City
(38.3360°N, 75.0850°W)
Time: 00:32:06
(UTC-05:00)

Explorer 11/Cluster Stage 4 - Pass Details

Date: 15 November 2019
Orbit: 467 x 1259 km, 28.8° (Epoch: 09 December)

Event Time Altitude Azimuth Distance (km) Brightness Sun altitude
Rises 20:37:58 0° 225° (SW) 3,478 10.2 -45.0°
Enters shadow 20:38:49 - 222° (SW) 3,222 10.0 -45.2°
Reaches altitude 10° 20:40:47 10° 213° (SSW) 2,672 - -45.6°
Maximum altitude 20:46:08 26° 159° (SSE) 1,954 - -46.6°
Drops below altitude 10° 20:52:15 10° 106° (ESE) 3,090 - -47.7°
Sets 20:55:46 0° 95° (E) 4,133 - -48.4°
